Wind_Speed
4 6 7 12 7 4 8 5 6 3 6 5 6 7 17 26 20 25 27 25 21 16 12 6 2 6 11 16 19 21 22 24 25 24 20 19 19 19 22 26 29 30 30 30
6 2 4 5 3 4 6 6 3 2 3 3 4 4 7 16 15 26 31 26 23 18 13 7 2 4 11 16 21 23 23 25 24 20 19 19 18 20 23 25 27 27 27 28
6 5 6 5 3 6 2 7 5 5 5 3 6 3 5 5 12 17 21 24 21 18 14 9 2 4 11 16 22 22 23 23 19 18 17 19 19 21 25 27 27 25 25 26
4 1 5 4 4 4 3 2 4 6 4 3 3 4 7 8 8 14 19 24 23 19 14 8 2 4 11 17 19 20 20 18 17 18 21 23 23 24 23 25 24 23 24 27
5 4 4 3 4 4 4 4 5 4 3 2 3 2 4 14 8 11 19 25 24 19 13 8 3 4 11 15 17 19 17 16 17 19 22 24 24 23 23 22 22 23 24 27
3 3 3 6 3 3 5 5 6 4 3 2 6 10 4 7 15 13 18 24 24 20 15 9 3 5 10 14 16 17 16 17 18 19 22 24 24 23 23 22 21 22 23 24
4 3 2 4 5 3 6 6 3 3 2 6 1 4 4 4 1 17 22 26 24 20 15 9 2 5 10 14 15 15 15 18 18 19 22 23 23 21 20 19 20 22 23 26
6 2 5 1 3 5 3 6 5 5 3 4 2 5 3 4 8 25 27 29 24 20 14 8 1 6 11 13 12 13 16 19 19 20 23 23 21 20 18 18 18 19 21 23
5 2 0 2 2 5 4 3 3 3 1 2 3 3 1 4 7 17 22 26 24 20 14 7 1 6 10 10 10 12 16 19 19 20 22 22 20 20 19 16 15 17 20 22
7 4 2 2 3 2 3 4 3 2 2 4 3 4 4 7 9 10 17 24 25 19 14 7 1 5 8 9 9 11 16 19 19 20 22 22 20 19 17 15 16 16 18 20
5 4 2 3 3 7 2 1 4 3 4 4 2 5 4 13 16 17 20 27 26 20 14 8 2 3 7 9 9 11 15 17 19 21 21 20 19 17 14 13 14 16 18 21
2 5 3 2 1 3 3 5 5 4 4 1 3 6 3 8 22 20 20 26 23 16 12 7 2 3 8 7 9 12 14 17 19 20 19 18 16 15 13 13 15 17 20 21
6 1 4 4 4 2 3 4 4 5 3 5 5 5 5 5 12 19 26 26 23 18 14 8 3 4 6 5 8 11 13 16 18 19 18 17 16 15 15 16 17 18 20 23
4 3 5 7 4 4 4 4 4 5 3 3 6 4 4 4 8 17 23 26 22 18 12 7 4 2 3 5 8 9 12 14 17 19 17 16 15 15 16 17 18 18 20 22
4 4 3 4 3 2 2 3 5 5 4 5 4 5 4 11 12 21 28 24 22 18 13 9 5 1 4 5 6 8 11 13 17 19 15 13 14 15 16 18 19 17 19 22
2 2 2 2 5 4 2 5 5 4 4 5 1 7 1 9 19 21 26 25 22 18 13 9 5 4 4 4 6 7 10 14 18 15 13 12 15 18 17 19 19 18 20 21
4 5 3 3 2 3 5 6 4 2 2 3 3 4 6 5 16 24 25 23 20 17 14 10 6 5 4 4 4 8 10 15 15 12 10 12 16 19 19 19 18 19 21 21
5 4 3 3 2 1 4 4 3 4 1 2 2 4 5 10 11 15 18 20 18 16 14 10 7 6 4 2 5 7 11 14 11 8 9 11 15 19 18 18 19 20 22 21
5 5 3 4 3 4 2 2 4 5 4 1 7 8 13 15 12 6 12 17 13 13 10 6 6 5 3 2 5 8 12 9 7 8 10 12 15 18 18 18 20 21 21 20
8 7 4 2 4 5 4 2 4 4 4 5 13 16 19 14 3 4 14 15 14 10 7 9 7 5 3 2 5 9 8 5 6 8 10 11 13 17 18 17 19 20 22 20
3 4 4 2 1 7 5 5 3 2 5 13 19 23 24 5 5 8 19 16 10 9 10 8 6 4 1 3 6 7 3 4 6 7 10 11 13 15 16 16 17 20 22 20
6 6 3 3 2 7 11 5 6 6 12 15 18 20 23 11 7 18 19 16 14 11 10 7 6 4 1 4 5 3 2 4 6 6 9 11 12 13 15 17 18 20 22 23
2 5 5 7 5 3 16 3 7 18 20 16 15 18 18 15 17 19 20 16 13 9 8 8 5 4 0 3 2 1 2 3 5 7 9 11 11 13 15 17 18 20 24 26
2 5 3 3 1 1 8 6 14 10 15 13 9 12 13 11 19 20 18 17 13 10 7 8 7 4 1 2 0 1 3 5 7 8 8 9 10 12 15 16 19 21 25 26
3 6 5 1 2 5 7 9 13 12 12 13 12 8 9 11 17 18 18 16 12 8 9 9 7 4 2 1 0 1 1 4 5 7 8 8 10 12 14 17 18 19 22 22
3 5 4 5 12 5 9 12 12 11 12 10 10 13 12 11 14 18 17 14 9 6 9 9 8 5 3 2 1 1 3 4 5 6 8 8 11 12 14 15 16 16 17 19
Wind_Direction
42 97 176 189 190 154 182 173 172 228 171 137 197 160 176 177 178 163 166 162 157 154 146 138 67 16 3 0 357 358 358 1 358 359 4 7 6 0 357 358 354 357 0 2
30 167 208 131 182 146 143 157 150 81 102 140 185 187 182 180 187 178 171 169 163 158 159 158 138 359 4 355 360 359 0 358 359 5 9 8 359 0 359 359 358 0 1 4
155 211 138 118 100 112 61 165 167 150 136 77 113 8 157 167 163 180 180 178 172 173 172 168 170 5 359 356 3 0 358 357 6 9 3 2 3 360 1 1 3 5 5 6
144 173 131 120 103 110 115 166 135 127 119 219 166 252 208 174 165 173 176 182 178 180 177 173 163 357 358 4 2 357 355 3 7 7 6 9 7 5 1 358 1 4 7 8
227 136 111 115 155 150 187 130 135 144 156 148 214 13 273 149 202 185 172 184 183 187 182 175 171 355 4 5 359 357 1 4 7 7 7 5 3 360 356 359 0 6 9 9
138 87 106 164 93 93 119 86 54 60 94 302 217 185 222 195 210 170 169 176 181 182 178 178 175 9 5 5 355 359 5 8 3 1 2 1 359 357 353 360 1 7 9 12
17 342 346 120 91 52 72 64 355 344 345 228 2 157 273 251 220 171 169 180 183 180 182 181 166 8 7 353 346 3 7 5 4 0 358 357 356 354 356 358 359 6 10 11
151 250 177 181 153 172 150 142 157 232 221 266 338 245 271 323 265 180 174 179 177 179 182 177 142 15 355 342 351 5 3 3 0 357 356 355 356 357 359 358 1 7 8 9
143 237 53 92 115 123 181 170 176 119 8 28 274 282 292 86 96 137 149 173 180 181 179 174 116 353 343 357 358 2 1 358 355 354 354 356 357 359 358 359 360 8 6 3
199 110 211 131 89 51 134 161 75 16 253 268 284 278 240 191 180 169 166 171 179 177 176 178 185 343 2 0 360 359 355 354 353 354 356 357 357 358 0 360 359 2 4 354
130 100 252 110 191 182 121 192 69 124 144 198 296 265 217 194 191 191 181 181 181 179 182 183 210 23 359 355 358 351 351 355 355 355 355 354 358 0 3 4 360 356 353 356
154 120 143 202 322 183 177 181 144 135 224 148 151 272 360 233 200 184 166 182 183 183 185 181 152 13 349 347 350 348 353 353 354 351 350 356 1 7 7 1 353 351 353 353
181 96 102 4 351 359 199 191 131 107 86 194 144 263 9 89 149 168 163 178 178 182 183 174 181 326 339 346 345 344 347 350 349 350 351 357 3 7 2 356 351 349 352 350
100 111 155 185 194 152 173 184 151 129 131 198 228 281 236 185 153 152 167 177 179 185 183 183 222 297 338 334 335 333 338 344 348 349 349 358 3 358 357 354 352 351 351 349
107 124 107 76 30 67 166 181 170 194 191 187 258 236 254 199 179 172 176 176 180 184 187 197 206 263 301 309 311 316 333 343 348 346 349 360 360 358 357 357 356 356 353 354
26 148 106 75 30 50 252 254 249 220 205 252 257 276 357 158 163 167 179 182 188 191 191 190 207 268 265 288 294 320 339 344 345 345 353 3 4 4 4 6 4 1 2 1
108 126 102 195 355 12 310 220 198 184 108 175 236 233 144 158 168 178 182 191 194 195 191 198 224 245 246 279 312 332 338 342 342 346 2 7 9 11 11 12 8 7 6 2
118 94 74 144 49 48 250 311 270 142 126 315 96 132 140 144 136 181 197 193 194 192 190 205 216 208 235 276 320 328 339 339 346 8 12 11 10 12 12 12 12 10 7 6
86 111 84 129 184 293 281 204 154 164 242 305 141 122 138 139 135 117 183 203 196 181 190 192 189 205 213 265 325 333 336 346 9 22 11 11 8 10 12 14 14 12 9 12
67 71 103 89 133 210 234 214 123 105 281 169 156 160 159 152 138 215 174 176 168 173 185 185 184 190 204 308 327 330 339 2 17 18 11 10 6 8 13 15 15 14 13 17
71 39 128 115 189 286 242 160 121 133 234 168 181 176 170 168 187 168 170 164 169 176 175 178 176 180 227 329 329 330 348 7 23 15 11 10 7 10 13 12 11 14 15 19
151 138 175 101 108 279 176 132 180 183 138 168 174 180 182 185 148 158 167 168 164 172 177 179 179 188 235 337 331 316 346 26 17 2 9 7 8 11 13 13 12 13 15 21
162 174 178 179 213 288 178 316 191 157 156 162 171 190 196 186 169 167 169 165 167 174 175 181 199 188 4 349 326 321 27 24 14 11 6 5 9 13 13 13 11 11 14 19
136 158 134 94 290 182 184 164 169 168 158 165 165 163 173 179 171 171 171 166 173 172 188 184 191 195 301 340 344 356 33 38 16 11 13 12 12 15 13 12 9 7 14 15
190 135 132 53 351 127 167 173 172 161 161 162 155 166 179 181 176 181 172 170 174 173 184 188 199 221 267 275 266 22 44 36 9 20 24 18 14 15 13 11 9 11 10 8
186 167 157 217 193 163 183 180 179 179 167 168 165 169 181 190 185 177 171 172 170 183 182 187 196 223 233 204 181 103 74 48 28 29 28 22 17 18 16 15 12 15 14 16
Height
1517 1525 1535 1532 1531 1532 1537 1546 1551 1550 1549 1555 1559 1565 1565 1569 1574 1574 1574 1575 1578 1580 1581 1580 1582 1581 1579 1576 1573 1569 1565 1560 1556 1552 1549 1545 1540 1536 1532 1527 1523 1519 1514 1509
1524 1531 1524 1526 1528 1532 1538 1547 1549 1548 1550 1554 1561 1565 1567 1569 1571 1572 1571 1574 1576 1579 1580 1580 1582 1581 1578 1575 1571 1567 1563 1558 1555 1551 1548 1544 1541 1537 1532 1527 1523 1518 1514 1509
1527 1524 1522 1526 1532 1534 1540 1544 1549 1551 1554 1558 1560 1569 1570 1570 1572 1574 1575 1576 1578 1578 1578 1579 1580 1579 1576 1573 1569 1565 1562 1559 1555 1551 1549 1546 1542 1538 1534 1529 1522 1518 1513 1510
1523 1520 1523 1528 1533 1534 1542 1536 1540 1548 1557 1570 1558 1579 1565 1567 1570 1571 1573 1576 1578 1578 1578 1579 1579 1578 1574 1572 1569 1566 1563 1559 1556 1553 1549 1545 1541 1536 1532 1528 1523 1519 1514 1509
1526 1523 1526 1530 1530 1531 1538 1536 1541 1548 1556 1559 1562 1573 1560 1562 1569 1567 1571 1574 1577 1577 1577 1577 1578 1576 1573 1572 1570 1566 1563 1560 1556 1553 1550 1546 1541 1537 1532 1526 1524 1520 1515 1509
1523 1522 1524 1527 1528 1530 1534 1541 1549 1556 1563 1575 1557 1562 1560 1562 1549 1561 1568 1572 1574 1575 1575 1576 1577 1575 1573 1571 1569 1567 1564 1560 1556 1553 1549 1544 1541 1537 1534 1528 1522 1518 1513 1509
1529 1529 1525 1525 1532 1532 1538 1551 1575 1574 1578 1575 1549 1561 1550 1551 1549 1553 1561 1567 1571 1572 1573 1575 1576 1574 1573 1572 1569 1567 1564 1560 1557 1553 1548 1544 1539 1535 1531 1528 1524 1520 1515 1511
1541 1545 1529 1526 1529 1536 1540 1548 1573 1573 1578 1567 1549 1558 1551 1551 1548 1552 1557 1562 1568 1570 1573 1574 1574 1573 1572 1571 1569 1567 1564 1561 1558 1554 1549 1545 1541 1536 1532 1528 1524 1521 1517 1511
1537 1535 1526 1526 1526 1530 1541 1549 1544 1556 1562 1571 1562 1558 1553 1554 1554 1555 1557 1562 1566 1568 1571 1572 1572 1572 1571 1570 1568 1566 1564 1560 1557 1553 1549 1544 1541 1536 1533 1529 1527 1521 1518 1512
1522 1537 1527 1527 1527 1531 1534 1537 1554 1561 1566 1567 1562 1559 1551 1556 1555 1556 1558 1560 1564 1567 1569 1571 1571 1570 1570 1568 1567 1566 1564 1561 1557 1553 1550 1546 1541 1537 1533 1530 1527 1522 1516 1512
1516 1527 1535 1528 1532 1536 1539 1543 1547 1552 1564 1569 1573 1558 1541 1544 1545 1547 1552 1556 1560 1565 1567 1568 1569 1569 1569 1568 1567 1566 1564 1561 1558 1553 1548 1545 1541 1537 1532 1528 1524 1521 1516 1511
1514 1529 1544 1534 1528 1528 1529 1534 1540 1559 1558 1566 1572 1562 1540 1538 1538 1544 1550 1555 1560 1564 1565 1567 1568 1568 1568 1568 1567 1566 1564 1560 1556 1552 1548 1544 1539 1535 1532 1529 1525 1520 1516 1510
1513 1530 1548 1541 1536 1529 1530 1530 1535 1545 1554 1561 1571 1555 1539 1538 1541 1545 1548 1554 1559 1562 1564 1566 1567 1568 1568 1567 1567 1566 1563 1560 1556 1552 1548 1545 1541 1538 1533 1529 1525 1520 1515 1509
1510 1524 1529 1540 1532 1529 1532 1529 1533 1540 1560 1555 1555 1542 1541 1542 1543 1545 1548 1552 1557 1560 1562 1565 1567 1567 1567 1566 1566 1564 1562 1559 1556 1551 1548 1544 1540 1536 1533 1529 1524 1520 1514 1509
1512 1525 1523 1526 1526 1524 1525 1528 1532 1537 1540 1545 1539 1540 1533 1536 1539 1541 1545 1551 1555 1558 1561 1564 1566 1567 1566 1566 1565 1564 1562 1560 1557 1553 1548 1544 1541 1536 1532 1528 1524 1519 1514 1509
1512 1528 1523 1533 1531 1529 1530 1529 1531 1533 1533 1537 1537 1539 1534 1533 1538 1543 1545 1549 1552 1556 1560 1564 1565 1565 1565 1565 1565 1565 1563 1560 1556 1553 1549 1546 1542 1538 1533 1527 1524 1519 1514 1510
1514 1524 1535 1536 1536 1534 1540 1530 1527 1526 1528 1530 1535 1531 1532 1536 1537 1540 1544 1548 1550 1555 1559 1562 1563 1564 1564 1565 1565 1564 1561 1558 1554 1553 1550 1547 1543 1538 1534 1528 1525 1520 1515 1510
1514 1524 1535 1548 1540 1558 1527 1523 1523 1525 1530 1527 1531 1532 1533 1536 1539 1541 1545 1546 1550 1554 1558 1561 1562 1562 1564 1565 1564 1562 1560 1557 1554 1551 1549 1547 1544 1539 1535 1530 1526 1521 1516 1511
1507 1522 1546 1552 1553 1539 1524 1522 1524 1527 1530 1529 1532 1534 1535 1537 1540 1544 1545 1548 1551 1554 1558 1560 1561 1561 1563 1563 1563 1562 1559 1556 1554 1552 1550 1548 1544 1540 1536 1531 1527 1523 1518 1513
1513 1518 1532 1558 1553 1547 1523 1520 1520 1522 1535 1526 1529 1532 1533 1537 1544 1543 1544 1548 1552 1555 1557 1558 1559 1561 1562 1562 1562 1560 1558 1556 1555 1552 1551 1548 1546 1541 1537 1532 1529 1525 1520 1514
1525 1531 1539 1552 1552 1538 1519 1519 1521 1535 1533 1524 1527 1529 1532 1536 1537 1539 1544 1549 1553 1555 1556 1557 1559 1561 1562 1561 1561 1559 1557 1555 1554 1553 1552 1549 1547 1543 1538 1534 1531 1527 1522 1517
1520 1534 1542 1545 1547 1541 1513 1519 1525 1519 1519 1523 1526 1528 1531 1534 1537 1540 1545 1548 1551 1553 1555 1558 1559 1561 1561 1561 1560 1558 1557 1555 1554 1553 1552 1550 1548 1544 1539 1535 1532 1528 1524 1518
1515 1515 1524 1525 1525 1512 1513 1514 1513 1511 1515 1522 1524 1527 1531 1534 1538 1541 1545 1548 1551 1554 1556 1558 1560 1560 1561 1560 1559 1557 1557 1555 1555 1553 1551 1551 1549 1545 1541 1537 1533 1529 1525 1519
1505 1507 1513 1516 1514 1513 1514 1516 1518 1517 1516 1521 1524 1527 1530 1533 1537 1541 1545 1549 1551 1553 1556 1558 1560 1560 1560 1560 1559 1558 1557 1557 1556 1554 1552 1552 1550 1546 1542 1539 1535 1530 1525 1522
1505 1506 1512 1516 1514 1515 1515 1516 1519 1518 1520 1522 1525 1528 1531 1534 1537 1541 1545 1549 1551 1554 1555 1556 1558 1560 1560 1560 1560 1558 1558 1557 1557 1554 1553 1553 1551 1547 1544 1540 1537 1532 1528 1525
1503 1505 1511 1515 1506 1508 1511 1516 1518 1519 1521 1523 1525 1528 1532 1535 1538 1543 1546 1550 1552 1553 1555 1557 1558 1559 1559 1560 1559 1559 1558 1557 1558 1555 1555 1554 1552 1549 1546 1542 1539 1535 1532 1528